Panama City, FL

4:24 AM CST on January 17, 2018 (GMT -0600)
Northwest Florida Beaches International

Weather History for KECP - October, 2013

Change the Weather History Date:

Tuesday, October 29, 2013

  Actual Average Record
Temperature  
Mean Temperature 67 °F -  
Max Temperature 82 °F - 88 °F (2016)
Min Temperature 51 °F - 39 °F (2011)
Degree Days  
Heating Degree Days 0    
Cooling Degree Days 2    
Growing Degree Days 16 (Base 50)    
Moisture  
Dew Point 57 °F    
Average Humidity 68    
Maximum Humidity 100    
Minimum Humidity 36    
Precipitation  
Precipitation 0.00 in - 0.00 in (2018)
Month to date precipitation  
Year to date precipitation  
Sea Level Pressure  
Sea Level Pressure 30.26 in    
Wind  
Wind Speed 2 mph (ESE)    
Max Wind Speed 13 mph    
Max Gust Speed -    
Visibility 10 miles    
Events      
T = Trace of Precipitation, MM = Missing Value Source: NWS Daily Summary

Daily Weather History Graph

Daily Weather History Graph

Search for Another Location

Airport or City:

Trip Planner

Search our weather history database for the weather conditions in past years. The results will help you decide how hot, cold, wet, or windy it might be!

Date:

Astronomy

Oct. 29, 2013 Rise Set
Actual Time 7:55 AM EDT 6:57 PM EDT
Civil Twilight 7:30 AM EDT 7:22 PM EDT
Nautical Twilight 7:02 AM EDT 7:50 PM EDT
Astronomical Twilight 6:34 AM EDT 8:18 PM EDT
Moon 3:05 AM EDT (10/29) 3:53 PM EDT (10/29)
Length of Visible Light 11h 51m
Length of Day
11h 02m
Waning Crescent, 25% of the Moon is Illuminated
Oct 29
Waning Crescent
Nov 3
New
Nov 10
First Quarter
Nov 17
Full
Nov 25
Last Quarter

Hourly Weather History & Observations

Time (EDT) Temp. Heat Index Dew Point Humidity Pressure Visibility Wind Dir Wind Speed Gust Speed Precip Events Conditions
12:53 AM 55.9 °F - 55.0 °F 97% 30.26 in 10.0 mi Calm Calm - N/A   Clear
1:53 AM 54.0 °F - 54.0 °F 100% 30.25 in 10.0 mi Calm Calm - N/A   Clear
2:53 AM 53.1 °F - 53.1 °F 100% 30.25 in 9.0 mi Calm Calm - N/A   Clear
3:53 AM 53.1 °F - 53.1 °F 100% 30.23 in 9.0 mi Calm Calm - N/A   Clear
4:53 AM 52.0 °F - 52.0 °F 100% 30.24 in 10.0 mi Calm Calm - N/A   Clear
5:53 AM 52.0 °F - 51.1 °F 97% 30.25 in 10.0 mi Calm Calm - N/A   Clear
6:53 AM 52.0 °F - 51.1 °F 97% 30.27 in 10.0 mi Calm Calm - N/A   Clear
7:53 AM 54.0 °F - 54.0 °F 100% 30.27 in 8.0 mi Calm Calm - N/A   Clear
8:53 AM 60.1 °F - 57.9 °F 93% 30.29 in 9.0 mi Calm Calm - N/A   Clear
9:53 AM 66.0 °F - 63.0 °F 90% 30.31 in 10.0 mi East 5.8 mph - N/A   Clear
10:53 AM 72.0 °F - 61.0 °F 68% 30.32 in 10.0 mi East 5.8 mph - N/A   Clear
11:53 AM 75.9 °F - 59.0 °F 56% 30.32 in 10.0 mi East 11.5 mph - N/A   Clear
12:53 PM 79.0 °F - 57.0 °F 47% 30.30 in 10.0 mi East 9.2 mph - N/A   Clear
1:53 PM 80.1 °F 80.2 °F 55.9 °F 43% 30.27 in 10.0 mi Variable 4.6 mph - N/A   Clear
2:53 PM 81.0 °F 80.5 °F 54.0 °F 39% 30.23 in 10.0 mi Calm Calm - N/A   Clear
3:53 PM 81.0 °F - 52.0 °F 36% 30.22 in 10.0 mi ESE 3.5 mph - N/A   Clear
4:53 PM 80.1 °F 80.1 °F 55.0 °F 42% 30.22 in 10.0 mi East 3.5 mph - N/A   Clear
5:53 PM 78.1 °F - 61.0 °F 56% 30.22 in 10.0 mi South 4.6 mph - N/A   Clear
6:53 PM 73.0 °F - 62.1 °F 68% 30.24 in 10.0 mi SSE 3.5 mph - N/A   Clear
7:53 PM 66.9 °F - 64.0 °F 90% 30.25 in 10.0 mi Calm Calm - N/A   Clear
8:53 PM 64.0 °F - 62.1 °F 93% 30.26 in 10.0 mi Calm Calm - N/A   Clear
9:53 PM 62.1 °F - 61.0 °F 96% 30.28 in 9.0 mi Calm Calm - N/A   Clear
10:53 PM 62.1 °F - 61.0 °F 96% 30.29 in 9.0 mi Calm Calm - N/A   Clear
11:53 PM 59.0 °F - 59.0 °F 100% 30.28 in 8.0 mi NNE 3.5 mph - N/A   Clear